GEFSNE_prec_meanprecacc_228.txt.gz
Total_Precipitation_Accumulation
2.29 2.47 2.34 2.21 2.20 2.21 2.41 2.64 2.61 2.26 1.96 1.80 1.67 1.52 1.55 1.51 1.54 1.46 1.38 1.28 1.11 1.02 0.97 0.93 0.92 0.95 1.04 1.18 1.37 1.55 1.68 1.80 1.90 2.00 2.15 2.31 2.50 2.72
2.23 2.32 2.28 2.23 2.43 2.41 2.47 2.62 2.75 2.61 2.09 1.87 1.79 1.50 1.60 1.32 1.40 1.37 1.33 1.28 1.10 0.98 0.93 0.90 0.89 0.90 0.90 0.94 1.04 1.18 1.34 1.47 1.59 1.69 1.71 1.71 1.73 1.83
1.88 1.96 1.94 2.15 2.33 2.28 2.37 2.45 2.57 2.67 2.27 2.02 2.09 1.90 1.89 1.68 1.51 1.39 1.22 1.23 1.12 1.06 0.97 0.90 0.87 0.87 0.89 0.88 0.88 0.95 1.06 1.16 1.24 1.37 1.53 1.63 1.65 1.67
1.84 1.91 1.82 1.97 2.08 2.11 2.26 2.34 2.50 2.73 2.53 2.30 2.29 2.26 2.16 1.98 1.81 1.62 1.27 1.10 1.13 1.20 1.05 0.94 0.90 0.89 0.93 0.93 0.89 0.86 0.88 0.92 0.96 1.04 1.20 1.34 1.47 1.59
1.67 1.63 1.61 1.78 1.81 1.93 2.07 2.07 2.18 2.50 2.55 2.29 2.19 2.44 2.33 2.13 2.16 1.87 1.64 1.58 1.19 1.17 1.10 0.94 0.90 0.87 0.89 0.95 0.96 0.90 0.86 0.87 0.91 0.97 1.09 1.22 1.30 1.39
1.44 1.33 1.37 1.52 1.57 1.68 1.71 1.83 1.96 2.13 2.32 2.28 2.19 2.34 2.40 2.29 2.46 2.24 2.03 1.87 1.55 1.26 1.26 1.05 0.97 0.94 0.92 0.92 0.94 0.97 0.99 0.99 0.99 1.04 1.08 1.12 1.22 1.31
1.29 1.14 1.07 1.10 1.16 1.29 1.27 1.47 1.71 1.88 1.96 2.10 2.14 2.24 2.46 2.54 2.42 2.40 2.24 2.05 1.90 1.76 1.74 1.34 1.07 0.96 0.96 0.96 0.98 1.03 1.07 1.08 1.10 1.18 1.27 1.31 1.34 1.37
1.30 1.26 1.11 1.01 0.98 1.02 1.05 1.11 1.25 1.41 1.61 1.86 1.94 2.04 2.28 2.55 2.58 2.61 2.51 2.29 2.08 1.92 2.06 2.02 1.68 1.41 1.22 1.00 1.00 1.03 1.11 1.20 1.24 1.30 1.38 1.52 1.63 1.63
1.28 1.26 1.06 0.94 0.99 0.96 1.01 1.02 1.07 1.10 1.17 1.40 1.54 1.60 1.85 2.17 2.51 2.55 2.62 2.46 2.23 2.20 2.34 2.41 2.47 2.24 1.68 1.33 1.26 1.11 1.14 1.24 1.30 1.36 1.42 1.46 1.61 1.76
1.21 1.23 1.23 1.18 1.09 1.11 1.13 1.08 0.99 1.01 1.03 0.99 1.05 1.25 1.42 1.67 2.05 2.24 2.54 2.72 2.57 2.49 2.56 2.64 2.65 2.86 2.37 1.83 1.65 1.40 1.33 1.35 1.41 1.43 1.46 1.53 1.59 1.67
1.25 1.25 1.23 1.17 1.18 1.13 1.14 1.14 1.03 0.97 0.95 0.94 0.91 1.01 1.20 1.34 1.63 1.98 2.26 2.46 2.55 2.63 2.69 2.76 2.67 2.81 3.10 2.64 1.96 1.61 1.38 1.32 1.36 1.40 1.45 1.56 1.63 1.62
1.35 1.34 1.21 1.08 1.14 1.08 0.99 1.04 1.04 1.03 1.08 1.04 1.02 1.05 1.11 1.27 1.52 1.79 2.04 2.30 2.34 2.41 2.28 2.26 2.28 2.42 2.85 3.05 2.68 2.07 1.61 1.44 1.34 1.31 1.34 1.46 1.59 1.46
1.34 1.33 1.27 1.13 0.96 0.92 0.90 0.93 0.98 1.07 1.17 1.19 1.20 1.23 1.31 1.35 1.39 1.58 1.85 2.09 2.17 1.98 1.76 1.88 2.04 2.16 2.23 2.42 2.59 2.54 2.17 1.83 1.61 1.46 1.40 1.39 1.43 1.40
1.58 1.54 1.47 1.30 1.09 0.96 0.87 0.91 0.98 0.97 1.05 1.15 1.13 1.12 1.19 1.24 1.29 1.45 1.65 1.79 1.89 1.89 1.84 1.95 2.08 2.11 2.19 2.21 2.25 2.32 2.35 2.19 2.00 1.86 1.78 1.76 1.59 1.52
1.75 1.73 1.61 1.37 1.16 0.99 0.91 0.92 0.93 0.91 0.97 1.04 1.00 0.96 1.02 1.10 1.18 1.33 1.50 1.67 1.73 1.68 1.69 1.81 1.93 1.95 2.05 2.12 2.07 1.99 2.05 2.13 2.12 2.10 2.11 2.09 1.96 1.81
1.69 1.62 1.54 1.42 1.24 1.14 1.08 1.00 0.93 0.99 1.01 1.01 1.02 1.02 1.08 1.18 1.28 1.32 1.44 1.59 1.76 1.72 1.67 1.72 1.78 1.89 1.86 1.74 1.67 1.55 1.54 1.65 1.82 1.96 2.16 2.34 2.38 2.31
1.80 1.66 1.58 1.47 1.36 1.30 1.25 1.17 1.09 1.09 1.06 1.05 1.09 1.08 1.08 1.13 1.20 1.24 1.34 1.40 1.47 1.50 1.53 1.59 1.72 1.85 1.85 1.77 1.65 1.47 1.42 1.36 1.41 1.70 2.02 2.26 2.28 2.16
1.50 1.49 1.49 1.45 1.38 1.33 1.29 1.21 1.16 1.12 1.11 1.10 1.11 1.09 1.05 1.06 1.13 1.25 1.35 1.35 1.30 1.30 1.37 1.42 1.63 1.84 1.88 1.71 1.42 1.32 1.31 1.27 1.27 1.47 1.65 1.74 1.75 1.65
1.24 1.31 1.28 1.28 1.27 1.26 1.25 1.18 1.14 1.12 1.16 1.17 1.12 1.11 1.10 1.11 1.14 1.23 1.33 1.36 1.30 1.27 1.37 1.51 1.64 1.76 1.74 1.54 1.34 1.11 1.12 1.16 1.28 1.44 1.53 1.51 1.41 1.29
1.15 1.20 1.21 1.23 1.25 1.27 1.27 1.22 1.21 1.21 1.24 1.25 1.23 1.21 1.22 1.23 1.24 1.26 1.33 1.38 1.34 1.31 1.39 1.50 1.54 1.57 1.57 1.47 1.37 1.24 1.03 1.09 1.16 1.26 1.36 1.39 1.29 1.16
1.25 1.29 1.29 1.28 1.30 1.34 1.34 1.30 1.30 1.26 1.23 1.26 1.26 1.25 1.22 1.23 1.28 1.29 1.35 1.41 1.38 1.35 1.31 1.31 1.39 1.49 1.61 1.79 1.68 1.45 1.27 1.14 1.15 1.17 1.25 1.38 1.39 1.33
1.21 1.26 1.27 1.26 1.29 1.33 1.30 1.28 1.28 1.25 1.22 1.21 1.20 1.22 1.22 1.21 1.22 1.28 1.31 1.33 1.31 1.27 1.23 1.25 1.40 1.58 1.66 1.71 1.62 1.49 1.44 1.37 1.31 1.25 1.19 1.14 1.16 1.18
1.19 1.22 1.19 1.16 1.18 1.19 1.14 1.12 1.17 1.21 1.22 1.22 1.20 1.17 1.16 1.15 1.13 1.19 1.25 1.29 1.31 1.33 1.35 1.40 1.44 1.52 1.56 1.58 1.62 1.58 1.48 1.45 1.45 1.44 1.35 1.16 0.89 0.78

GEFSNE_prec_meanprecacc_234.txt.gz
Total_Precipitation_Accumulation
2.35 2.54 2.40 2.26 2.25 2.26 2.48 2.71 2.67 2.32 2.03 1.87 1.75 1.62 1.65 1.61 1.64 1.54 1.47 1.40 1.23 1.12 1.07 1.01 0.99 1.01 1.10 1.24 1.42 1.60 1.74 1.86 1.98 2.08 2.24 2.43 2.65 2.89
2.30 2.42 2.38 2.32 2.50 2.47 2.54 2.70 2.83 2.69 2.18 1.97 1.90 1.62 1.72 1.43 1.52 1.49 1.44 1.40 1.23 1.10 1.03 0.98 0.96 0.96 0.97 1.01 1.11 1.23 1.39 1.52 1.64 1.75 1.78 1.80 1.84 1.97
1.92 2.01 2.01 2.24 2.41 2.35 2.43 2.52 2.65 2.76 2.37 2.15 2.24 2.03 2.00 1.80 1.63 1.48 1.29 1.30 1.19 1.13 1.05 0.98 0.94 0.93 0.96 0.94 0.93 0.99 1.11 1.21 1.29 1.41 1.57 1.68 1.73 1.76
1.87 1.94 1.86 2.03 2.14 2.17 2.32 2.42 2.58 2.85 2.66 2.43 2.41 2.37 2.26 2.07 1.89 1.67 1.31 1.13 1.16 1.23 1.08 0.97 0.93 0.92 0.97 0.97 0.93 0.91 0.93 0.97 1.01 1.08 1.24 1.38 1.51 1.64
1.70 1.65 1.64 1.82 1.85 1.98 2.13 2.13 2.26 2.60 2.65 2.39 2.29 2.51 2.39 2.19 2.22 1.91 1.67 1.60 1.21 1.20 1.12 0.97 0.92 0.90 0.92 0.98 0.99 0.93 0.89 0.90 0.93 1.01 1.14 1.28 1.38 1.46
1.46 1.35 1.39 1.54 1.60 1.73 1.78 1.91 2.05 2.19 2.37 2.34 2.24 2.39 2.44 2.33 2.50 2.28 2.07 1.92 1.59 1.29 1.29 1.09 1.01 0.97 0.95 0.95 0.97 0.99 1.02 1.01 1.01 1.07 1.10 1.15 1.26 1.35
1.30 1.16 1.09 1.13 1.21 1.34 1.32 1.52 1.77 1.91 1.99 2.13 2.17 2.27 2.49 2.58 2.45 2.43 2.28 2.08 1.93 1.78 1.76 1.37 1.09 0.97 0.96 0.97 0.99 1.04 1.08 1.09 1.11 1.18 1.28 1.33 1.36 1.40
1.32 1.29 1.13 1.02 1.01 1.06 1.09 1.15 1.29 1.43 1.63 1.88 1.97 2.07 2.30 2.57 2.60 2.63 2.53 2.31 2.10 1.94 2.07 2.03 1.69 1.42 1.22 1.01 1.01 1.04 1.12 1.21 1.24 1.30 1.39 1.52 1.65 1.64
1.29 1.27 1.07 0.95 1.02 0.99 1.04 1.05 1.09 1.12 1.20 1.43 1.56 1.62 1.87 2.18 2.52 2.57 2.64 2.48 2.25 2.22 2.35 2.42 2.48 2.24 1.68 1.33 1.26 1.11 1.14 1.24 1.30 1.36 1.43 1.46 1.62 1.77
1.23 1.26 1.26 1.20 1.12 1.14 1.16 1.10 1.01 1.02 1.04 1.00 1.06 1.26 1.43 1.68 2.06 2.25 2.55 2.74 2.60 2.51 2.58 2.65 2.66 2.87 2.37 1.83 1.65 1.40 1.33 1.35 1.41 1.43 1.46 1.53 1.59 1.67
1.28 1.28 1.27 1.20 1.21 1.16 1.16 1.16 1.04 0.97 0.96 0.95 0.93 1.03 1.22 1.36 1.65 1.99 2.28 2.48 2.57 2.65 2.71 2.77 2.69 2.82 3.10 2.65 1.96 1.61 1.38 1.32 1.36 1.41 1.45 1.57 1.64 1.63
1.38 1.36 1.24 1.11 1.17 1.12 1.02 1.08 1.06 1.06 1.10 1.06 1.04 1.07 1.13 1.28 1.53 1.79 2.04 2.30 2.35 2.42 2.29 2.27 2.28 2.42 2.85 3.05 2.68 2.07 1.62 1.45 1.34 1.32 1.35 1.47 1.61 1.48
1.37 1.36 1.30 1.18 1.00 0.96 0.93 0.95 1.01 1.10 1.20 1.21 1.22 1.25 1.32 1.36 1.40 1.58 1.86 2.10 2.17 1.98 1.76 1.88 2.04 2.16 2.24 2.42 2.59 2.54 2.17 1.83 1.62 1.46 1.40 1.40 1.45 1.42
1.60 1.56 1.50 1.34 1.12 0.99 0.90 0.94 1.02 1.01 1.07 1.17 1.15 1.13 1.20 1.25 1.30 1.46 1.65 1.80 1.89 1.89 1.84 1.95 2.08 2.11 2.19 2.21 2.25 2.32 2.35 2.19 2.00 1.86 1.78 1.77 1.60 1.52
1.77 1.77 1.66 1.43 1.21 1.03 0.95 0.95 0.96 0.93 0.99 1.06 1.01 0.97 1.02 1.10 1.18 1.34 1.51 1.67 1.73 1.68 1.69 1.82 1.93 1.95 2.06 2.12 2.07 1.99 2.05 2.13 2.12 2.10 2.12 2.09 1.97 1.81
1.74 1.67 1.60 1.49 1.30 1.18 1.11 1.03 0.95 1.00 1.03 1.03 1.04 1.03 1.08 1.18 1.28 1.33 1.45 1.59 1.76 1.72 1.67 1.72 1.78 1.89 1.86 1.74 1.67 1.55 1.54 1.66 1.82 1.97 2.16 2.35 2.39 2.31
1.87 1.73 1.64 1.52 1.42 1.35 1.28 1.19 1.11 1.10 1.07 1.06 1.09 1.08 1.08 1.13 1.20 1.24 1.34 1.41 1.48 1.50 1.53 1.59 1.72 1.85 1.85 1.77 1.65 1.47 1.42 1.36 1.41 1.70 2.02 2.26 2.28 2.16
1.52 1.51 1.52 1.49 1.41 1.35 1.30 1.22 1.17 1.12 1.11 1.11 1.11 1.09 1.05 1.06 1.14 1.25 1.36 1.35 1.31 1.31 1.37 1.42 1.63 1.84 1.88 1.71 1.42 1.32 1.31 1.27 1.27 1.47 1.65 1.74 1.75 1.65
1.24 1.32 1.29 1.29 1.28 1.27 1.25 1.18 1.14 1.12 1.16 1.17 1.12 1.11 1.10 1.11 1.14 1.23 1.33 1.37 1.30 1.28 1.37 1.51 1.64 1.76 1.74 1.54 1.34 1.11 1.12 1.16 1.28 1.44 1.53 1.51 1.41 1.29
1.15 1.21 1.22 1.23 1.25 1.27 1.27 1.22 1.21 1.21 1.24 1.25 1.23 1.21 1.22 1.23 1.24 1.26 1.33 1.38 1.34 1.31 1.39 1.50 1.54 1.57 1.57 1.47 1.38 1.24 1.04 1.10 1.16 1.26 1.36 1.39 1.30 1.16
1.26 1.30 1.29 1.28 1.30 1.34 1.34 1.30 1.30 1.26 1.23 1.26 1.26 1.25 1.23 1.24 1.29 1.30 1.36 1.42 1.39 1.35 1.32 1.31 1.39 1.49 1.62 1.79 1.68 1.45 1.27 1.14 1.15 1.17 1.26 1.38 1.39 1.33
1.21 1.27 1.28 1.27 1.30 1.34 1.31 1.28 1.29 1.26 1.23 1.22 1.21 1.22 1.23 1.21 1.23 1.29 1.32 1.35 1.32 1.28 1.24 1.26 1.41 1.59 1.67 1.71 1.63 1.50 1.44 1.37 1.31 1.25 1.20 1.14 1.16 1.18
1.20 1.23 1.20 1.18 1.20 1.21 1.16 1.15 1.20 1.24 1.25 1.24 1.21 1.18 1.17 1.15 1.13 1.20 1.26 1.30 1.32 1.34 1.36 1.41 1.45 1.53 1.57 1.59 1.63 1.59 1.49 1.45 1.46 1.44 1.35 1.16 0.89 0.79

GEFSNE_prec_meanprecacc_240.txt.gz
Total_Precipitation_Accumulation
2.41 2.63 2.51 2.37 2.36 2.34 2.57 2.82 2.79 2.43 2.14 1.98 1.83 1.69 1.71 1.68 1.70 1.61 1.54 1.48 1.31 1.21 1.15 1.10 1.08 1.08 1.17 1.32 1.51 1.69 1.81 1.92 2.04 2.15 2.33 2.56 2.78 3.00
2.36 2.48 2.47 2.42 2.62 2.58 2.63 2.79 2.93 2.80 2.29 2.09 2.02 1.73 1.82 1.53 1.62 1.56 1.50 1.46 1.29 1.18 1.13 1.10 1.07 1.04 1.05 1.10 1.21 1.33 1.47 1.58 1.69 1.79 1.82 1.86 1.93 2.06
1.98 2.07 2.09 2.33 2.52 2.47 2.56 2.64 2.78 2.90 2.53 2.31 2.39 2.19 2.17 1.95 1.74 1.56 1.35 1.34 1.23 1.18 1.11 1.06 1.03 1.01 1.04 1.02 1.00 1.07 1.17 1.27 1.34 1.47 1.62 1.73 1.78 1.83
1.92 2.00 1.92 2.09 2.21 2.24 2.42 2.53 2.73 3.02 2.82 2.57 2.55 2.49 2.38 2.18 1.98 1.74 1.35 1.16 1.19 1.28 1.13 1.02 0.98 0.97 1.01 1.02 0.98 0.95 0.97 1.01 1.05 1.13 1.29 1.45 1.58 1.71
1.74 1.70 1.69 1.87 1.91 2.04 2.19 2.20 2.37 2.72 2.76 2.49 2.40 2.62 2.49 2.27 2.29 1.98 1.72 1.65 1.24 1.23 1.16 1.00 0.95 0.92 0.94 1.01 1.02 0.96 0.92 0.93 0.97 1.04 1.17 1.32 1.42 1.51
1.50 1.38 1.42 1.59 1.65 1.78 1.82 1.97 2.13 2.26 2.45 2.42 2.32 2.46 2.50 2.38 2.56 2.34 2.14 1.98 1.64 1.32 1.31 1.11 1.02 0.98 0.97 0.97 0.98 1.01 1.03 1.02 1.03 1.08 1.11 1.16 1.27 1.36
1.32 1.17 1.11 1.16 1.24 1.37 1.36 1.58 1.84 1.98 2.06 2.18 2.21 2.30 2.52 2.62 2.49 2.48 2.33 2.14 1.97 1.81 1.77 1.38 1.10 0.97 0.97 0.98 1.00 1.05 1.08 1.09 1.12 1.19 1.28 1.33 1.36 1.41
1.34 1.30 1.15 1.04 1.03 1.08 1.11 1.18 1.34 1.49 1.68 1.92 2.00 2.10 2.34 2.61 2.65 2.67 2.58 2.37 2.15 1.97 2.09 2.04 1.69 1.42 1.22 1.01 1.01 1.04 1.13 1.21 1.25 1.30 1.39 1.52 1.65 1.64
1.31 1.29 1.09 0.96 1.03 1.00 1.06 1.07 1.12 1.17 1.25 1.48 1.61 1.67 1.92 2.24 2.56 2.62 2.70 2.54 2.31 2.25 2.37 2.43 2.49 2.25 1.68 1.33 1.26 1.11 1.14 1.24 1.30 1.36 1.43 1.47 1.62 1.77
1.24 1.28 1.28 1.22 1.13 1.16 1.18 1.12 1.02 1.03 1.05 1.01 1.08 1.29 1.47 1.72 2.10 2.29 2.59 2.78 2.63 2.53 2.59 2.65 2.66 2.88 2.38 1.84 1.66 1.41 1.33 1.35 1.41 1.43 1.46 1.53 1.59 1.68
1.29 1.29 1.28 1.21 1.22 1.18 1.18 1.18 1.06 0.99 0.97 0.96 0.95 1.06 1.26 1.40 1.68 2.03 2.31 2.52 2.60 2.67 2.73 2.78 2.69 2.83 3.11 2.66 1.97 1.61 1.38 1.32 1.36 1.41 1.46 1.57 1.64 1.63
1.39 1.37 1.24 1.12 1.18 1.13 1.03 1.09 1.08 1.08 1.12 1.08 1.07 1.10 1.16 1.31 1.55 1.81 2.07 2.34 2.38 2.45 2.31 2.28 2.30 2.44 2.87 3.07 2.70 2.09 1.63 1.46 1.35 1.32 1.35 1.47 1.61 1.48
1.37 1.37 1.31 1.19 1.01 0.97 0.94 0.96 1.03 1.12 1.22 1.24 1.24 1.26 1.33 1.36 1.41 1.59 1.88 2.13 2.20 2.00 1.78 1.90 2.06 2.17 2.25 2.44 2.61 2.55 2.18 1.84 1.62 1.47 1.41 1.40 1.45 1.42
1.61 1.58 1.52 1.36 1.14 1.01 0.92 0.96 1.04 1.03 1.09 1.19 1.17 1.15 1.21 1.26 1.31 1.47 1.67 1.81 1.91 1.90 1.85 1.96 2.10 2.13 2.21 2.23 2.27 2.33 2.36 2.20 2.01 1.87 1.79 1.77 1.60 1.53
1.78 1.79 1.69 1.47 1.25 1.06 0.97 0.97 0.98 0.95 1.01 1.08 1.04 0.99 1.03 1.11 1.19 1.35 1.52 1.69 1.74 1.69 1.70 1.82 1.94 1.96 2.07 2.13 2.08 2.00 2.07 2.14 2.14 2.11 2.13 2.11 1.98 1.82
1.76 1.71 1.63 1.52 1.32 1.20 1.14 1.05 0.96 1.02 1.05 1.04 1.06 1.05 1.10 1.20 1.29 1.34 1.46 1.60 1.77 1.72 1.68 1.72 1.78 1.89 1.87 1.75 1.68 1.56 1.56 1.67 1.83 1.98 2.18 2.36 2.40 2.32
1.88 1.75 1.67 1.55 1.44 1.37 1.30 1.22 1.14 1.13 1.10 1.08 1.12 1.11 1.10 1.15 1.22 1.25 1.35 1.41 1.48 1.50 1.53 1.60 1.72 1.85 1.85 1.77 1.65 1.48 1.43 1.37 1.42 1.71 2.03 2.27 2.30 2.16
1.53 1.52 1.54 1.51 1.44 1.38 1.32 1.24 1.19 1.15 1.14 1.13 1.13 1.11 1.06 1.07 1.14 1.25 1.36 1.35 1.31 1.31 1.37 1.43 1.64 1.84 1.88 1.72 1.42 1.32 1.31 1.28 1.28 1.48 1.67 1.76 1.76 1.66
1.24 1.32 1.29 1.29 1.29 1.27 1.25 1.18 1.14 1.12 1.17 1.18 1.12 1.12 1.11 1.12 1.14 1.23 1.34 1.37 1.31 1.28 1.38 1.51 1.64 1.76 1.74 1.55 1.35 1.11 1.13 1.16 1.29 1.45 1.54 1.53 1.43 1.30
1.16 1.21 1.22 1.23 1.25 1.27 1.27 1.22 1.21 1.22 1.25 1.25 1.23 1.22 1.23 1.24 1.25 1.27 1.33 1.38 1.34 1.32 1.39 1.50 1.54 1.57 1.58 1.48 1.38 1.24 1.04 1.10 1.17 1.28 1.38 1.41 1.31 1.17
1.26 1.30 1.30 1.29 1.31 1.35 1.35 1.31 1.31 1.27 1.24 1.28 1.27 1.26 1.24 1.24 1.29 1.30 1.36 1.43 1.40 1.36 1.32 1.32 1.39 1.50 1.62 1.80 1.70 1.46 1.28 1.14 1.15 1.18 1.26 1.39 1.40 1.34
1.22 1.28 1.29 1.29 1.31 1.34 1.32 1.29 1.30 1.27 1.23 1.23 1.22 1.23 1.24 1.23 1.24 1.30 1.34 1.36 1.33 1.29 1.25 1.27 1.42 1.60 1.68 1.73 1.64 1.51 1.46 1.38 1.31 1.26 1.20 1.15 1.17 1.20
1.21 1.24 1.21 1.18 1.20 1.21 1.16 1.15 1.20 1.25 1.26 1.26 1.23 1.21 1.19 1.17 1.16 1.22 1.28 1.32 1.34 1.35 1.37 1.42 1.46 1.54 1.58 1.60 1.64 1.60 1.50 1.46 1.46 1.45 1.36 1.17 0.91 0.81

GEFSNE_prec_meanprecacc_246.txt.gz
Total_Precipitation_Accumulation
2.49 2.71 2.59 2.46 2.46 2.45 2.67 2.93 2.93 2.58 2.29 2.12 1.95 1.84 1.84 1.79 1.81 1.69 1.61 1.57 1.38 1.27 1.21 1.15 1.13 1.14 1.23 1.37 1.56 1.73 1.86 1.97 2.09 2.20 2.39 2.62 2.85 3.07
2.44 2.56 2.56 2.50 2.68 2.65 2.70 2.91 3.07 2.96 2.44 2.25 2.17 1.87 1.93 1.62 1.71 1.62 1.57 1.53 1.35 1.24 1.18 1.15 1.13 1.11 1.11 1.15 1.25 1.37 1.52 1.63 1.74 1.85 1.89 1.92 1.98 2.11
2.05 2.14 2.16 2.39 2.58 2.54 2.63 2.74 2.92 3.07 2.71 2.52 2.58 2.34 2.30 2.05 1.85 1.64 1.42 1.40 1.29 1.26 1.17 1.11 1.08 1.06 1.09 1.06 1.04 1.10 1.21 1.31 1.39 1.51 1.66 1.77 1.81 1.85
1.97 2.06 1.97 2.14 2.26 2.29 2.48 2.59 2.81 3.15 2.99 2.75 2.71 2.60 2.48 2.28 2.08 1.83 1.42 1.22 1.26 1.38 1.21 1.08 1.03 1.01 1.04 1.04 0.99 0.97 0.99 1.02 1.06 1.15 1.31 1.47 1.60 1.73
1.80 1.75 1.74 1.91 1.95 2.10 2.25 2.26 2.42 2.80 2.84 2.59 2.52 2.73 2.59 2.35 2.37 2.04 1.79 1.72 1.30 1.29 1.23 1.05 0.99 0.94 0.96 1.02 1.03 0.97 0.93 0.94 0.98 1.05 1.19 1.34 1.43 1.52
1.54 1.43 1.46 1.62 1.67 1.81 1.87 2.02 2.19 2.32 2.50 2.48 2.39 2.54 2.58 2.46 2.63 2.41 2.20 2.03 1.69 1.38 1.38 1.16 1.06 1.00 0.98 0.98 0.99 1.02 1.04 1.03 1.03 1.09 1.12 1.17 1.28 1.37
1.36 1.21 1.14 1.18 1.25 1.38 1.39 1.64 1.89 2.02 2.10 2.23 2.27 2.36 2.58 2.68 2.57 2.54 2.37 2.19 2.03 1.86 1.83 1.44 1.15 1.00 0.99 0.99 1.01 1.05 1.08 1.10 1.12 1.19 1.29 1.34 1.37 1.41
1.37 1.33 1.17 1.06 1.04 1.09 1.12 1.20 1.38 1.53 1.72 1.97 2.05 2.15 2.40 2.68 2.73 2.73 2.63 2.42 2.21 2.04 2.18 2.13 1.75 1.45 1.24 1.02 1.01 1.05 1.13 1.21 1.25 1.31 1.39 1.53 1.65 1.65
1.34 1.32 1.10 0.98 1.04 1.01 1.07 1.07 1.13 1.19 1.28 1.52 1.65 1.70 1.96 2.29 2.61 2.67 2.76 2.61 2.40 2.35 2.45 2.49 2.53 2.28 1.70 1.34 1.27 1.11 1.14 1.24 1.31 1.36 1.43 1.47 1.62 1.78
1.27 1.30 1.29 1.24 1.14 1.17 1.19 1.12 1.03 1.05 1.06 1.03 1.11 1.31 1.49 1.74 2.13 2.33 2.64 2.83 2.69 2.58 2.62 2.69 2.69 2.90 2.40 1.85 1.67 1.41 1.34 1.36 1.41 1.43 1.46 1.53 1.60 1.68
1.31 1.31 1.29 1.22 1.23 1.18 1.19 1.18 1.07 1.00 0.98 0.97 0.95 1.06 1.26 1.40 1.70 2.05 2.35 2.56 2.65 2.71 2.76 2.81 2.72 2.86 3.14 2.69 1.99 1.63 1.40 1.33 1.36 1.41 1.46 1.57 1.64 1.64
1.41 1.38 1.25 1.13 1.19 1.13 1.04 1.10 1.09 1.09 1.13 1.09 1.08 1.11 1.17 1.32 1.56 1.84 2.11 2.38 2.42 2.49 2.33 2.30 2.32 2.46 2.89 3.10 2.72 2.11 1.64 1.46 1.35 1.33 1.36 1.48 1.61 1.48
1.39 1.38 1.32 1.19 1.01 0.97 0.94 0.97 1.04 1.13 1.23 1.25 1.25 1.28 1.35 1.38 1.42 1.61 1.90 2.15 2.22 2.03 1.80 1.92 2.10 2.22 2.29 2.47 2.64 2.58 2.19 1.85 1.64 1.49 1.43 1.41 1.45 1.42
1.62 1.59 1.53 1.36 1.15 1.02 0.92 0.97 1.05 1.04 1.10 1.20 1.19 1.18 1.24 1.29 1.34 1.49 1.69 1.83 1.93 1.93 1.87 1.98 2.12 2.15 2.24 2.27 2.31 2.36 2.39 2.22 2.02 1.89 1.81 1.78 1.61 1.53
1.79 1.79 1.69 1.47 1.25 1.06 0.98 0.98 0.99 0.96 1.02 1.10 1.06 1.02 1.07 1.14 1.22 1.37 1.54 1.71 1.76 1.70 1.71 1.84 1.96 1.98 2.08 2.16 2.10 2.02 2.09 2.16 2.14 2.13 2.15 2.14 2.00 1.84
1.77 1.71 1.64 1.52 1.32 1.21 1.15 1.06 0.97 1.03 1.06 1.06 1.07 1.07 1.13 1.23 1.32 1.37 1.48 1.62 1.78 1.73 1.69 1.73 1.79 1.90 1.88 1.76 1.69 1.57 1.57 1.68 1.85 2.00 2.19 2.38 2.43 2.35
1.89 1.76 1.67 1.55 1.45 1.38 1.31 1.22 1.15 1.14 1.10 1.09 1.13 1.12 1.12 1.18 1.25 1.28 1.37 1.42 1.49 1.51 1.55 1.61 1.73 1.86 1.86 1.78 1.66 1.48 1.44 1.38 1.43 1.73 2.05 2.29 2.32 2.19
1.53 1.52 1.55 1.52 1.45 1.39 1.32 1.24 1.19 1.16 1.14 1.13 1.13 1.11 1.07 1.08 1.15 1.27 1.37 1.36 1.32 1.31 1.38 1.43 1.65 1.86 1.90 1.73 1.43 1.33 1.33 1.30 1.30 1.50 1.69 1.79 1.78 1.68
1.25 1.33 1.30 1.31 1.30 1.28 1.26 1.19 1.14 1.13 1.17 1.18 1.13 1.12 1.11 1.13 1.15 1.25 1.35 1.38 1.32 1.30 1.39 1.52 1.65 1.77 1.76 1.57 1.36 1.11 1.13 1.17 1.30 1.47 1.56 1.54 1.44 1.31
1.17 1.22 1.23 1.24 1.26 1.28 1.28 1.23 1.21 1.22 1.25 1.26 1.23 1.22 1.23 1.24 1.26 1.27 1.34 1.40 1.36 1.34 1.41 1.52 1.56 1.58 1.59 1.49 1.40 1.25 1.04 1.10 1.18 1.29 1.39 1.42 1.32 1.17
1.28 1.31 1.31 1.29 1.32 1.36 1.35 1.31 1.31 1.28 1.24 1.28 1.28 1.27 1.24 1.25 1.30 1.31 1.37 1.44 1.41 1.37 1.34 1.33 1.41 1.51 1.63 1.81 1.71 1.48 1.28 1.15 1.16 1.19 1.27 1.40 1.41 1.36
1.23 1.28 1.30 1.29 1.31 1.35 1.32 1.29 1.30 1.27 1.24 1.23 1.22 1.24 1.25 1.23 1.25 1.30 1.34 1.36 1.33 1.30 1.27 1.28 1.43 1.61 1.69 1.75 1.67 1.53 1.47 1.39 1.33 1.27 1.21 1.16 1.19 1.21
1.21 1.24 1.21 1.18 1.21 1.22 1.17 1.16 1.20 1.25 1.26 1.26 1.23 1.21 1.20 1.18 1.16 1.22 1.28 1.33 1.35 1.37 1.39 1.44 1.48 1.55 1.60 1.62 1.67 1.62 1.52 1.48 1.48 1.46 1.37 1.17 0.92 0.81

GEFSNE_prec_meanprecacc_252.txt.gz
Total_Precipitation_Accumulation
2.53 2.76 2.61 2.48 2.50 2.51 2.76 3.04 3.03 2.69 2.40 2.24 2.08 1.96 1.95 1.92 1.99 1.83 1.76 1.72 1.51 1.39 1.29 1.21 1.18 1.18 1.26 1.41 1.59 1.76 1.89 2.02 2.13 2.25 2.44 2.67 2.93 3.16
2.49 2.62 2.60 2.53 2.71 2.69 2.77 2.99 3.15 3.06 2.56 2.39 2.30 1.98 2.02 1.69 1.80 1.70 1.65 1.63 1.42 1.32 1.24 1.20 1.17 1.16 1.17 1.21 1.30 1.42 1.56 1.67 1.78 1.89 1.92 1.97 2.03 2.16
2.11 2.19 2.20 2.42 2.62 2.58 2.69 2.80 2.98 3.16 2.81 2.65 2.71 2.44 2.37 2.12 1.90 1.70 1.49 1.47 1.36 1.33 1.22 1.15 1.12 1.11 1.13 1.11 1.09 1.15 1.26 1.35 1.43 1.54 1.70 1.81 1.85 1.89
2.04 2.12 2.01 2.17 2.29 2.33 2.52 2.64 2.86 3.21 3.05 2.82 2.78 2.67 2.54 2.34 2.13 1.89 1.48 1.29 1.32 1.42 1.25 1.11 1.05 1.03 1.07 1.07 1.02 0.99 1.01 1.05 1.09 1.18 1.35 1.50 1.63 1.76
1.85 1.80 1.77 1.94 1.98 2.13 2.29 2.29 2.44 2.82 2.87 2.62 2.55 2.77 2.64 2.40 2.40 2.07 1.82 1.76 1.34 1.33 1.25 1.07 1.01 0.96 0.97 1.03 1.04 0.98 0.95 0.96 0.99 1.07 1.20 1.35 1.45 1.54
1.58 1.47 1.50 1.66 1.70 1.84 1.90 2.04 2.21 2.34 2.53 2.51 2.43 2.57 2.61 2.50 2.67 2.44 2.23 2.06 1.71 1.40 1.40 1.18 1.07 1.01 0.99 0.99 1.00 1.03 1.05 1.04 1.04 1.10 1.13 1.17 1.28 1.37
1.37 1.23 1.17 1.21 1.27 1.40 1.41 1.66 1.93 2.06 2.14 2.26 2.29 2.39 2.61 2.73 2.61 2.58 2.41 2.21 2.05 1.88 1.85 1.46 1.17 1.01 0.99 0.99 1.01 1.06 1.09 1.10 1.13 1.20 1.30 1.34 1.37 1.41
1.39 1.35 1.19 1.07 1.05 1.10 1.14 1.23 1.42 1.56 1.75 2.01 2.10 2.19 2.44 2.72 2.76 2.76 2.66 2.44 2.22 2.05 2.19 2.15 1.76 1.47 1.26 1.03 1.02 1.05 1.13 1.21 1.25 1.31 1.40 1.53 1.65 1.65
1.36 1.34 1.12 1.00 1.05 1.02 1.08 1.09 1.15 1.21 1.30 1.55 1.68 1.72 1.98 2.30 2.63 2.69 2.78 2.63 2.41 2.36 2.46 2.49 2.54 2.29 1.71 1.36 1.28 1.12 1.15 1.24 1.31 1.36 1.43 1.47 1.62 1.78
1.28 1.31 1.31 1.25 1.16 1.18 1.20 1.14 1.04 1.06 1.07 1.04 1.11 1.32 1.50 1.75 2.14 2.34 2.66 2.86 2.71 2.61 2.63 2.70 2.71 2.92 2.41 1.86 1.68 1.43 1.35 1.36 1.42 1.44 1.47 1.54 1.60 1.69
1.32 1.32 1.29 1.23 1.23 1.19 1.19 1.19 1.07 1.00 0.98 0.98 0.96 1.07 1.27 1.41 1.70 2.06 2.36 2.58 2.68 2.75 2.79 2.83 2.74 2.88 3.16 2.70 2.00 1.65 1.42 1.35 1.38 1.43 1.48 1.59 1.66 1.65
1.41 1.38 1.25 1.13 1.19 1.13 1.04 1.10 1.09 1.09 1.14 1.09 1.08 1.12 1.18 1.33 1.57 1.85 2.13 2.40 2.44 2.52 2.37 2.33 2.35 2.49 2.92 3.12 2.75 2.14 1.67 1.49 1.38 1.35 1.38 1.50 1.63 1.50
1.40 1.38 1.32 1.20 1.01 0.97 0.94 0.97 1.04 1.13 1.23 1.25 1.26 1.29 1.36 1.40 1.44 1.63 1.92 2.17 2.24 2.05 1.82 1.94 2.12 2.24 2.32 2.51 2.68 2.63 2.23 1.89 1.67 1.51 1.45 1.42 1.46 1.43
1.63 1.60 1.54 1.37 1.15 1.02 0.92 0.97 1.05 1.04 1.10 1.21 1.19 1.18 1.25 1.31 1.36 1.52 1.72 1.86 1.95 1.95 1.89 2.01 2.15 2.19 2.28 2.32 2.36 2.40 2.42 2.25 2.05 1.92 1.84 1.80 1.62 1.53
1.80 1.80 1.70 1.47 1.25 1.06 0.98 0.99 0.99 0.97 1.02 1.10 1.07 1.03 1.08 1.15 1.23 1.39 1.56 1.73 1.78 1.73 1.74 1.87 1.99 2.02 2.12 2.18 2.13 2.05 2.11 2.18 2.16 2.14 2.16 2.14 2.01 1.84
1.77 1.71 1.64 1.52 1.32 1.21 1.15 1.06 0.98 1.04 1.07 1.06 1.08 1.07 1.13 1.23 1.33 1.39 1.51 1.64 1.80 1.76 1.71 1.76 1.82 1.93 1.90 1.78 1.70 1.58 1.58 1.70 1.86 2.00 2.20 2.39 2.43 2.36
1.89 1.76 1.67 1.55 1.45 1.38 1.32 1.23 1.15 1.14 1.11 1.09 1.13 1.12 1.12 1.18 1.26 1.30 1.39 1.44 1.50 1.52 1.55 1.62 1.74 1.87 1.87 1.79 1.67 1.49 1.44 1.38 1.43 1.73 2.06 2.30 2.32 2.19
1.53 1.52 1.55 1.52 1.46 1.39 1.33 1.25 1.19 1.16 1.14 1.13 1.13 1.11 1.07 1.08 1.16 1.27 1.38 1.37 1.33 1.32 1.38 1.44 1.65 1.87 1.91 1.75 1.45 1.34 1.33 1.30 1.30 1.50 1.70 1.79 1.78 1.69
1.26 1.33 1.30 1.31 1.30 1.29 1.26 1.19 1.15 1.13 1.17 1.18 1.13 1.12 1.12 1.13 1.15 1.25 1.35 1.38 1.32 1.30 1.39 1.53 1.65 1.78 1.77 1.58 1.37 1.13 1.14 1.18 1.31 1.48 1.56 1.54 1.45 1.32
1.17 1.23 1.24 1.25 1.26 1.28 1.28 1.23 1.21 1.22 1.25 1.26 1.24 1.22 1.23 1.24 1.26 1.27 1.34 1.40 1.36 1.34 1.42 1.52 1.56 1.59 1.60 1.51 1.42 1.27 1.06 1.12 1.19 1.30 1.40 1.42 1.33 1.18
1.28 1.32 1.31 1.30 1.32 1.36 1.35 1.31 1.31 1.28 1.24 1.28 1.28 1.27 1.24 1.25 1.30 1.31 1.37 1.44 1.41 1.37 1.34 1.33 1.41 1.51 1.64 1.82 1.72 1.48 1.30 1.16 1.18 1.20 1.29 1.41 1.42 1.36
1.24 1.29 1.30 1.29 1.32 1.35 1.32 1.29 1.30 1.27 1.24 1.23 1.22 1.24 1.25 1.23 1.25 1.31 1.34 1.37 1.34 1.30 1.27 1.29 1.43 1.62 1.70 1.76 1.67 1.54 1.48 1.40 1.34 1.28 1.22 1.17 1.20 1.22
1.22 1.25 1.21 1.18 1.21 1.22 1.17 1.16 1.20 1.25 1.26 1.26 1.23 1.21 1.20 1.18 1.16 1.22 1.29 1.33 1.35 1.37 1.40 1.45 1.49 1.56 1.61 1.63 1.68 1.63 1.53 1.49 1.49 1.48 1.38 1.18 0.92 0.81